[[{"header":{"parameterUnit":"m.s-1","parameterCategory":1,"la1":30.2991,"la2":30.254,"lo1":-89.0895,"lo2":-89.0444,"dy":0.0017,"dx":0.0017,"nx":28,"ny":28,"refTime":"2025-01-28T03:00:00:Z","depth":0,"parameterNumber":2,"parameterNumberName":"U-component_of_WINDS"},"data":[0,0,0,0,0,0,0,0,0,0,0,0,0,0,0,0,0,0,0,0,0,0,0,0,0,0,0,0,0,0,0,0,0,0,0,0,0,0,0,0,0,0,0,0,0,0,0,0,0,0,0,0,0,0,0,0,0,0,-0.3788,-0.3787,0,-0.3718,-0.3717,-0.3717,-0.3655,-0.3654,-0.3654,-0.3653,-0.3583,-0.3582,-0.358,0,0,0,0,0,0,0,0,0,0,0,0,0,-0.387,-0.3868,-0.3788,-0.3787,-0.3786,-0.3718,-0.3717,-0.3716,-0.3655,-0.3654,-0.3654,-0.3653,-0.3583,-0.3582,-0.358,0,0,0,0,0,0,0,0,0,0,0,0,0,-0.3821,-0.3868,-0.3788,-0.3748,-0.3743,-0.3719,-0.3717,-0.3716,-0.3655,-0.3654,-0.3653,-0.3652,-0.3584,-0.3582,-0.358,-0.359,0,0,-0.3575,-0.3574,0,0,0,0,0,0,0,0,-0.3823,-0.3818,-0.3755,-0.375,-0.3745,-0.3694,-0.372,-0.3674,-0.3656,-0.3689,-0.3653,-0.3652,-0.3621,-0.3616,-0.3605,-0.3587,-0.3584,-0.3574,-0.3573,-0.3572,-0.3572,0,0,0,0,0,0,0,-0.3827,-0.382,-0.3761,-0.3754,-0.3748,-0.3733,-0.3725,-0.3711,-0.3662,-0.3686,-0.3681,-0.3674,-0.3618,-0.3607,-0.3603,-0.3583,-0.3574,-0.3573,-0.3572,-0.3571,-0.357,-0.3571,0,0,0,0,0,0,-0.3836,-0.3824,-0.3763,-0.3758,-0.3783,-0.3733,-0.3723,-0.3712,-0.3662,-0.3653,-0.3675,-0.3671,-0.3611,-0.3605,-0.36,-0.3609,-0.3572,-0.3571,-0.357,-0.3569,-0.357,-0.3571,0,0,0,0,0,0,-0.3838,-0.3832,-0.3766,-0.379,-0.378,-0.3732,-0.372,-0.3711,-0.37,-0.3653,-0.3644,-0.3672,-0.361,-0.3603,-0.3593,-0.3606,-0.357,-0.3568,-0.3568,-0.3569,-0.3571,-0.3627,0,0,0,0,0,0,-0.3841,-0.3833,-0.3836,-0.379,-0.3779,-0.376,-0.3721,-0.371,-0.3697,-0.3691,-0.3649,-0.3641,-0.3608,-0.3596,-0.3591,-0.3603,-0.3567,-0.3566,-0.3568,-0.357,-0.3624,-0.3631,-0.3636,0,0,0,0,0,-0.3844,-0.3855,-0.3836,-0.3829,-0.3782,-0.376,-0.3754,-0.3716,-0.3698,-0.3701,-0.3671,-0.3642,-0.3605,-0.3596,-0.359,-0.3601,-0.3565,-0.3568,-0.357,-0.3622,-0.3629,-0.3636,0,0,0,0,0,0,-0.3904,-0.3848,-0.3827,-0.3823,-0.3797,-0.375,-0.3753,-0.3726,-0.3705,-0.3701,-0.3655,-0.3646,-0.3641,-0.362,-0.361,-0.3608,-0.3581,-0.3583,-0.3623,-0.363,-0.3636,-0.3641,-0.3565,0,0,0,0,0,-0.3916,-0.3903,-0.3855,-0.3857,-0.3844,-0.3801,-0.379,-0.3763,-0.3734,-0.3723,-0.3692,-0.3666,-0.3648,-0.3638,-0.3619,-0.3621,-0.3611,-0.3625,-0.3631,-0.3637,-0.3639,-0.3638,-0.3644,-0.3579,-0.3579,-0.3579,0,0,-0.3943,-0.391,-0.3905,-0.3868,-0.3844,-0.3832,-0.3792,-0.3781,-0.3771,-0.3721,-0.371,-0.3687,-0.3654,-0.3651,-0.3647,-0.3633,-0.3654,-0.364,-0.3644,-0.3643,-0.3641,-0.3648,-0.3653,-0.3581,-0.358,-0.358,0,0,-0.3984,-0.3958,-0.3957,-0.3934,-0.3898,-0.3869,-0.3869,-0.3826,-0.3809,-0.3797,-0.3759,-0.3747,-0.3718,-0.3696,-0.3681,-0.3714,-0.3687,-0.3709,-0.3742,-0.3742,-0.3747,-0.3751,-0.3764,-0.3769,-0.3711,-0.3711,-0.3712,0,-0.4021,-0.4001,-0.3959,-0.395,-0.3935,-0.3889,-0.3887,-0.3867,-0.3828,-0.3819,-0.3802,-0.3764,-0.3739,-0.373,-0.3738,-0.3727,-0.3726,-0.3715,-0.3749,-0.3753,-0.3757,-0.3768,-0.3773,-0.3714,-0.3714,-0.3714,-0.3714,0,-0.4048,-0.4035,-0.4038,-0.4001,-0.3986,-0.398,-0.3938,-0.3928,-0.3903,-0.3876,-0.3864,-0.3832,-0.3806,-0.3802,-0.3777,-0.3789,-0.3781,-0.3758,-0.373,-0.3767,-0.3777,-0.3781,-0.3719,-0.3718,-0.3717,-0.3716,0,0,-0.4126,-0.4066,-0.4068,-0.405,-0.4008,-0.3997,-0.3989,-0.3963,-0.3956,-0.393,-0.3923,-0.3899,-0.3878,-0.3861,-0.3833,-0.3833,-0.3862,-0.381,-0.3808,-0.3821,-0.3874,-0.3893,-0.3898,-0.3843,-0.3844,-0.3844,-0.3877,0,-0.4161,-0.4145,-0.4107,-0.4103,-0.409,-0.4046,-0.404,-0.4013,-0.3987,-0.3973,-0.3945,-0.3929,-0.3901,-0.389,-0.3889,-0.3859,-0.3872,-0.3856,-0.3837,-0.3837,-0.3847,-0.3903,-0.3922,-0.3955,-0.3881,-0.3881,-0.3882,0,-0.42,-0.4177,-0.4171,-0.413,-0.4123,-0.4118,-0.4091,-0.4078,-0.4047,-0.4028,-0.4009,-0.3978,-0.3968,-0.3942,-0.3928,-0.3918,-0.3908,-0.3892,-0.3893,-0.389,-0.3862,-0.3903,-0.3964,-0.397,-0.3887,-0.3887,-0.3886,0,-0.4258,-0.4226,-0.4218,-0.4204,-0.4155,-0.4153,-0.4132,-0.41,-0.4087,-0.4064,-0.4055,-0.4031,-0.4019,-0.4001,-0.3964,-0.3949,-0.3955,-0.3925,-0.394,-0.3941,-0.3944,-0.3944,-0.4005,-0.3936,-0.3936,-0.3936,-0.3936,0,-0.4302,-0.43,-0.4243,-0.4239,-0.4236,-0.4193,-0.4191,-0.4167,-0.4139,-0.4129,-0.4089,-0.4081,-0.4032,-0.4019,-0.399,-0.3983,-0.3977,-0.3963,-0.3955,-0.3967,-0.3969,-0.396,-0.3957,-0.3937,-0.3937,-0.3937,-0.3936,0,-0.4367,-0.4328,-0.4317,-0.4272,-0.426,-0.426,-0.4221,-0.4215,-0.4187,-0.4175,-0.417,-0.4126,-0.4108,-0.4069,-0.404,-0.4021,-0.4022,-0.4008,-0.4032,-0.4027,-0.4044,-0.4043,-0.4102,-0.4108,-0.4035,-0.4036,-0.4036,0,-0.4397,-0.4395,-0.4349,-0.434,-0.4321,-0.4306,-0.4292,-0.4249,-0.4237,-0.4201,-0.42,-0.4178,-0.4159,-0.4132,-0.4098,-0.4076,-0.4061,-0.4084,-0.4058,-0.407,-0.4063,-0.4063,-0.4063,-0.409,-0.4091,-0.4092,-0.4092,0,-0.4456,-0.4437,-0.4419,-0.4394,-0.4379,-0.4357,-0.4334,-0.4328,-0.428,-0.4268,-0.4249,-0.4234,-0.4204,-0.4184,-0.4156,-0.4135,-0.4106,-0.41,-0.4103,-0.4115,-0.4129,-0.4122,-0.4049,-0.4099,-0.4099,-0.4098,-0.4098,-0.4098,-0.4505,-0.4501,-0.4468,-0.4449,-0.4427,-0.4406,-0.4398,-0.4369,-0.4352,-0.4324,-0.43,-0.4283,-0.4252,-0.4212,-0.4193,-0.418,-0.4165,-0.4168,-0.4169,-0.4171,-0.4176,-0.4131,-0.4175,-0.4174,-0.4174,-0.4174,-0.4174,0,-0.4563,-0.4539,-0.4522,-0.449,-0.4475,-0.4448,-0.442,-0.441,-0.4395,-0.4369,-0.435,-0.4328,-0.4308,-0.4272,-0.4249,-0.4245,-0.4231,-0.424,-0.4241,-0.4237,-0.419,-0.4191,-0.4252,-0.4252,-0.4252,-0.4252,-0.4252,-0.4252,-0.4591,-0.4583,-0.456,-0.4541,-0.4517,-0.45,-0.4487,-0.4467,-0.4445,-0.4423,-0.4405,-0.4382,-0.4351,-0.4326,-0.4306,-0.4296,-0.429,-0.4304,-0.429,-0.4247,-0.424,-0.4233,-0.4233,-0.4302,-0.4303,-0.4337,-0.4337,-0.4338]},{"header":{"parameterUnit":"m.s-1","parameterCategory":1,"la1":30.2991,"la2":30.254,"lo1":-89.0895,"lo2":-89.0444,"dy":0.0017,"dx":0.0017,"nx":28,"ny":28,"refTime":"2025-01-28T03:00:00:Z","depth":0,"parameterNumber":3,"parameterNumberName":"V-component_of_WINDS"},"data":[0,0,0,0,0,0,0,0,0,0,0,0,0,0,0,0,0,0,0,0,0,0,0,0,0,0,0,0,0,0,0,0,0,0,0,0,0,0,0,0,0,0,0,0,0,0,0,0,0,0,0,0,0,0,0,0,0,0,0.4543,0.4543,0,0.454,0.454,0.454,0.458,0.4581,0.4583,0.4584,0.4581,0.458,0.4579,0,0,0,0,0,0,0,0,0,0,0,0,0,0.4585,0.4584,0.4543,0.4543,0.4543,0.454,0.454,0.454,0.458,0.4582,0.4583,0.4584,0.4581,0.458,0.4579,0,0,0,0,0,0,0,0,0,0,0,0,0,0.4573,0.4584,0.4543,0.4563,0.4565,0.454,0.454,0.454,0.458,0.4582,0.4583,0.4585,0.4582,0.458,0.4578,0.4535,0,0,0.4573,0.4573,0,0,0,0,0,0,0,0,0.4573,0.4571,0.456,0.4561,0.4563,0.4562,0.4554,0.4538,0.4579,0.4574,0.4584,0.4586,0.4573,0.4573,0.4568,0.4535,0.4535,0.4573,0.4572,0.4572,0.4571,0,0,0,0,0,0,0,0.4574,0.4571,0.4542,0.456,0.4562,0.4572,0.4572,0.4551,0.4565,0.4575,0.4578,0.4577,0.4575,0.457,0.4569,0.4535,0.4573,0.4572,0.4571,0.457,0.4465,0.4464,0,0,0,0,0,0,0.4572,0.4572,0.4542,0.4542,0.4572,0.457,0.457,0.4561,0.4565,0.4567,0.4575,0.4579,0.4572,0.457,0.4569,0.4518,0.4572,0.457,0.4569,0.4467,0.4465,0.4463,0,0,0,0,0,0,0.4573,0.4569,0.4542,0.4558,0.4555,0.4567,0.4557,0.456,0.4555,0.4565,0.4568,0.4568,0.4573,0.4571,0.4543,0.4518,0.4569,0.4568,0.4469,0.4466,0.4464,0.4415,0,0,0,0,0,0,0.4574,0.4569,0.4553,0.4557,0.4554,0.4516,0.4555,0.4559,0.4552,0.4556,0.4559,0.4561,0.4574,0.4545,0.4541,0.4517,0.4566,0.4472,0.4468,0.4465,0.4419,0.4411,0.4404,0,0,0,0,0,0.4575,0.4539,0.4552,0.4548,0.4534,0.4515,0.4513,0.4529,0.455,0.4533,0.454,0.4561,0.4522,0.4542,0.4538,0.4512,0.4473,0.4469,0.4465,0.4422,0.4413,0.4405,0,0,0,0,0,0,0.4532,0.454,0.4554,0.4518,0.4515,0.4522,0.4501,0.4518,0.451,0.4514,0.4534,0.4534,0.4503,0.4505,0.4528,0.4471,0.4501,0.4496,0.447,0.4461,0.4454,0.4453,0.4565,0,0,0,0,0,0.4518,0.4502,0.451,0.4478,0.4476,0.4489,0.4481,0.4494,0.4492,0.4491,0.4495,0.4492,0.448,0.4471,0.4459,0.442,0.4421,0.44,0.4393,0.4387,0.4382,0.4361,0.4352,0.445,0.445,0.445,0,0,0.449,0.4492,0.4481,0.4469,0.4469,0.4451,0.4487,0.4468,0.4455,0.4488,0.4461,0.4464,0.4463,0.4429,0.4414,0.443,0.4355,0.4382,0.4377,0.4375,0.4356,0.4346,0.4338,0.4447,0.4448,0.4448,0,0,0.4429,0.4429,0.4402,0.4401,0.4399,0.4408,0.4401,0.4405,0.4408,0.4382,0.4405,0.4391,0.4369,0.4366,0.4362,0.43,0.4319,0.4296,0.4257,0.4236,0.4228,0.4222,0.4199,0.419,0.4291,0.4291,0.4291,0,0.4394,0.4368,0.4386,0.4365,0.4359,0.4387,0.436,0.4358,0.4352,0.4347,0.4365,0.4337,0.4338,0.4304,0.4288,0.4284,0.4277,0.4295,0.4228,0.4222,0.4215,0.4194,0.4185,0.4288,0.4289,0.4289,0.4289,0,0.4325,0.4307,0.4285,0.4279,0.4271,0.4246,0.426,0.425,0.4263,0.427,0.4243,0.4245,0.4234,0.4228,0.424,0.4195,0.4204,0.4225,0.4256,0.4203,0.4183,0.4175,0.4284,0.4285,0.4286,0.4287,0,0,0.4236,0.424,0.4231,0.4228,0.4229,0.4215,0.4192,0.4182,0.4172,0.4168,0.4148,0.4129,0.4147,0.4143,0.4156,0.4137,0.4087,0.416,0.416,0.4146,0.4036,0.402,0.401,0.41,0.4098,0.4097,0.4036,0,0.4176,0.4136,0.4151,0.411,0.4094,0.4121,0.4101,0.4099,0.4105,0.4092,0.4098,0.4084,0.411,0.4107,0.409,0.4097,0.4065,0.4102,0.4082,0.4081,0.408,0.3999,0.3982,0.3924,0.4028,0.4027,0.4026,0,0.41,0.4092,0.4049,0.4052,0.4046,0.4027,0.4018,0.4006,0.4004,0.4009,0.4004,0.4021,0.3999,0.403,0.3999,0.4024,0.4017,0.4019,0.4017,0.4015,0.4049,0.3994,0.3906,0.3897,0.4014,0.4015,0.4016,0,0.4039,0.4017,0.3988,0.3985,0.3988,0.3974,0.3975,0.3975,0.3967,0.396,0.3955,0.3945,0.3939,0.3931,0.3945,0.3967,0.3912,0.3945,0.3916,0.3915,0.3902,0.3903,0.3811,0.3899,0.3899,0.39,0.39,0,0.3969,0.3942,0.3961,0.3943,0.3913,0.3931,0.3901,0.3905,0.3904,0.3888,0.3911,0.3895,0.3915,0.3901,0.3912,0.3884,0.3882,0.3885,0.3888,0.3882,0.3882,0.3877,0.3881,0.3897,0.3898,0.3898,0.3899,0,0.3895,0.3906,0.3877,0.3882,0.3882,0.386,0.3864,0.3848,0.3856,0.3834,0.383,0.3842,0.3827,0.384,0.3826,0.3833,0.3796,0.3805,0.3796,0.3798,0.3768,0.377,0.3669,0.3656,0.3754,0.3753,0.3752,0,0.3849,0.3829,0.3831,0.3821,0.382,0.3805,0.3797,0.3814,0.3805,0.3801,0.3786,0.3772,0.3762,0.3737,0.3744,0.3733,0.3742,0.3707,0.374,0.3735,0.374,0.374,0.3738,0.37,0.3699,0.3698,0.3697,0,0.3767,0.3774,0.3761,0.3751,0.3741,0.3733,0.3728,0.3719,0.3737,0.3725,0.371,0.3702,0.3687,0.3673,0.3664,0.3665,0.3683,0.3687,0.3679,0.3672,0.3668,0.3669,0.3777,0.3689,0.3689,0.369,0.369,0.3691,0.3705,0.3688,0.3686,0.3672,0.367,0.3664,0.3649,0.3654,0.3641,0.363,0.3641,0.3622,0.3621,0.3611,0.3609,0.3595,0.3609,0.3598,0.3596,0.3592,0.3587,0.3671,0.3593,0.3594,0.3594,0.3594,0.3594,0,0.3623,0.3624,0.361,0.3601,0.359,0.3608,0.3603,0.3592,0.3575,0.3572,0.3562,0.3544,0.353,0.3537,0.3525,0.3512,0.352,0.3508,0.3509,0.3509,0.3576,0.3583,0.3502,0.3502,0.3502,0.3502,0.3502,0.3502,0.3579,0.3551,0.3557,0.3527,0.3528,0.3509,0.3505,0.3499,0.3497,0.3475,0.3464,0.3469,0.3469,0.3458,0.3446,0.3449,0.3443,0.3428,0.3433,0.3495,0.3504,0.3513,0.352,0.3427,0.3427,0.3367,0.3367,0.3366]}]]